Time,TemperatureF,DewpointF,PressureIn,WindDirection,WindDirectionDegrees,WindSpeedMPH,WindSpeedGustMPH,Humidity,HourlyPrecipIn,Conditions,Clouds,dailyrainin,SolarRadiationWatts/m^2,SoftwareType,DateUTC
2013-11-09 00:03:00,34.4,29.2,30.27,WNW,299,0.0,1.0,81,0.00,,,0.00,0,Wunderground v.1.15,2013-11-09 05:03:00,
2013-11-09 00:06:00,34.5,29.6,30.27,WNW,299,0.0,1.0,82,0.00,,,0.00,0,Wunderground v.1.15,2013-11-09 05:06:00,
2013-11-09 00:07:00,34.5,29.6,30.27,WNW,298,0.0,1.0,82,0.00,,,0.00,0,Wunderground v.1.15,2013-11-09 05:07:00,
2013-11-09 00:08:00,34.4,29.5,30.27,WNW,299,0.0,0.0,82,0.00,,,0.00,0,Wunderground v.1.15,2013-11-09 05:08:00,
2013-11-09 00:13:00,34.5,29.3,30.27,WNW,299,0.0,0.0,81,0.00,,,0.00,0,Wunderground v.1.15,2013-11-09 05:13:00,
2013-11-09 00:15:00,34.5,29.6,30.27,WNW,299,0.0,0.0,82,0.00,,,0.00,0,Wunderground v.1.15,2013-11-09 05:15:00,
2013-11-09 00:21:00,34.7,29.8,30.27,WNW,299,0.0,1.0,82,0.00,,,0.00,0,Wunderground v.1.15,2013-11-09 05:21:00,
2013-11-09 00:26:00,34.8,29.6,30.27,WNW,299,0.0,1.0,81,0.00,,,0.00,0,Wunderground v.1.15,2013-11-09 05:26:00,
2013-11-09 00:32:00,34.9,30.0,30.27,WNW,299,0.0,0.0,82,0.00,,,0.00,0,Wunderground v.1.15,2013-11-09 05:32:00,
2013-11-09 00:37:00,35.0,29.8,30.27,WNW,299,0.0,1.0,81,0.00,,,0.00,0,Wunderground v.1.15,2013-11-09 05:37:00,
2013-11-09 00:38:00,35.1,30.2,30.27,WNW,299,1.0,1.0,82,0.00,,,0.00,0,Wunderground v.1.15,2013-11-09 05:38:00,
2013-11-09 00:43:00,35.2,30.3,30.27,WNW,299,0.0,0.0,82,0.00,,,0.00,0,Wunderground v.1.15,2013-11-09 05:43:00,
2013-11-09 00:49:00,35.3,30.1,30.27,WNW,299,1.0,1.0,81,0.00,,,0.00,0,Wunderground v.1.15,2013-11-09 05:49:00,
2013-11-09 00:54:00,35.4,30.5,30.27,WNW,299,0.0,1.0,82,0.00,,,0.00,0,Wunderground v.1.15,2013-11-09 05:54:00,
2013-11-09 01:00:00,35.4,30.1,30.27,WNW,299,0.0,0.0,81,0.00,,,0.00,0,Wunderground v.1.15,2013-11-09 06:00:00,
2013-11-09 01:05:00,35.5,30.2,30.27,WNW,299,0.0,0.0,81,0.00,,,0.00,0,Wunderground v.1.15,2013-11-09 06:05:00,
2013-11-09 01:11:00,35.6,30.3,30.27,WNW,299,0.0,1.0,81,0.00,,,0.00,0,Wunderground v.1.15,2013-11-09 06:11:00,
2013-11-09 01:17:00,35.6,30.3,30.27,WNW,299,0.0,1.0,81,0.00,,,0.00,0,Wunderground v.1.15,2013-11-09 06:17:00,
2013-11-09 01:22:00,35.7,30.4,30.27,WNW,299,0.0,0.0,81,0.00,,,0.00,0,Wunderground v.1.15,2013-11-09 06:22:00,
2013-11-09 01:27:00,35.7,30.4,30.26,WNW,299,0.0,1.0,81,0.00,,,0.00,0,Wunderground v.1.15,2013-11-09 06:27:00,
2013-11-09 01:32:00,35.7,30.4,30.26,WNW,299,0.0,0.0,81,0.00,,,0.00,0,Wunderground v.1.15,2013-11-09 06:32:00,
2013-11-09 01:37:00,35.6,30.0,30.26,WNW,299,1.0,1.0,80,0.00,,,0.00,0,Wunderground v.1.15,2013-11-09 06:37:00,
2013-11-09 01:43:00,35.7,30.1,30.26,WNW,299,0.0,0.0,80,0.00,,,0.00,0,Wunderground v.1.15,2013-11-09 06:43:00,
2013-11-09 01:49:00,35.7,30.4,30.26,WNW,299,0.0,0.0,81,0.00,,,0.00,0,Wunderground v.1.15,2013-11-09 06:49:00,
2013-11-09 01:54:00,35.7,30.4,30.27,WNW,299,0.0,0.0,81,0.00,,,0.00,0,Wunderground v.1.15,2013-11-09 06:54:00,
2013-11-09 02:00:00,35.7,30.4,30.27,WNW,299,1.0,1.0,81,0.00,,,0.00,0,Wunderground v.1.15,2013-11-09 07:00:00,
2013-11-09 02:05:00,35.8,30.5,30.27,WNW,299,0.0,1.0,81,0.00,,,0.00,0,Wunderground v.1.15,2013-11-09 07:05:00,
2013-11-09 02:10:00,35.8,30.5,30.27,WNW,299,0.0,1.0,81,0.00,,,0.00,0,Wunderground v.1.15,2013-11-09 07:10:00,
2013-11-09 02:15:00,35.8,30.5,30.26,WNW,299,0.0,1.0,81,0.00,,,0.00,0,Wunderground v.1.15,2013-11-09 07:15:00,
2013-11-09 02:20:00,35.7,30.4,30.27,WNW,299,0.0,0.0,81,0.00,,,0.00,0,Wunderground v.1.15,2013-11-09 07:20:00,
2013-11-09 02:25:00,35.7,30.4,30.27,WNW,299,1.0,1.0,81,0.00,,,0.00,0,Wunderground v.1.15,2013-11-09 07:25:00,
2013-11-09 02:31:00,35.5,30.5,30.26,WNW,299,0.0,1.0,82,0.00,,,0.00,0,Wunderground v.1.15,2013-11-09 07:31:00,
2013-11-09 02:36:00,35.5,30.5,30.26,WNW,299,1.0,1.0,82,0.00,,,0.00,0,Wunderground v.1.15,2013-11-09 07:36:00,
2013-11-09 02:41:00,35.6,30.9,30.26,WNW,299,0.0,1.0,83,0.00,,,0.00,0,Wunderground v.1.15,2013-11-09 07:41:00,
2013-11-09 02:46:00,35.5,30.5,30.26,WNW,299,0.0,1.0,82,0.00,,,0.00,0,Wunderground v.1.15,2013-11-09 07:46:00,
2013-11-09 02:51:00,35.4,30.5,30.26,WNW,299,0.0,1.0,82,0.00,,,0.00,0,Wunderground v.1.15,2013-11-09 07:51:00,
2013-11-09 02:56:00,35.3,30.4,30.25,WNW,299,1.0,1.0,82,0.00,,,0.00,0,Wunderground v.1.15,2013-11-09 07:56:00,
2013-11-09 03:01:00,35.1,30.5,30.25,WNW,299,0.0,1.0,83,0.00,,,0.00,0,Wunderground v.1.15,2013-11-09 08:01:00,
2013-11-09 03:06:00,35.1,30.2,30.25,WNW,299,0.0,1.0,82,0.00,,,0.00,0,Wunderground v.1.15,2013-11-09 08:06:00,
2013-11-09 03:11:00,35.0,30.4,30.25,WNW,299,0.0,1.0,83,0.00,,,0.00,0,Wunderground v.1.15,2013-11-09 08:11:00,
2013-11-09 03:16:00,35.0,30.4,30.25,WNW,299,1.0,1.0,83,0.00,,,0.00,0,Wunderground v.1.15,2013-11-09 08:16:00,
2013-11-09 03:21:00,34.9,30.0,30.24,WNW,299,0.0,0.0,82,0.00,,,0.00,0,Wunderground v.1.15,2013-11-09 08:21:00,
2013-11-09 03:26:00,34.9,30.3,30.25,WNW,299,0.0,0.0,83,0.00,,,0.00,0,Wunderground v.1.15,2013-11-09 08:26:00,
2013-11-09 03:31:00,34.8,30.2,30.25,WNW,299,0.0,0.0,83,0.00,,,0.00,0,Wunderground v.1.15,2013-11-09 08:31:00,
2013-11-09 03:36:00,34.7,30.1,30.25,WNW,299,0.0,1.0,83,0.00,,,0.00,0,Wunderground v.1.15,2013-11-09 08:36:00,
2013-11-09 03:41:00,34.6,30.0,30.25,WNW,299,0.0,0.0,83,0.00,,,0.00,0,Wunderground v.1.15,2013-11-09 08:41:00,
2013-11-09 03:46:00,34.4,29.8,30.25,WNW,299,0.0,0.0,83,0.00,,,0.00,0,Wunderground v.1.15,2013-11-09 08:46:00,
2013-11-09 03:51:00,34.3,30.0,30.25,WNW,299,0.0,0.0,84,0.00,,,0.00,0,Wunderground v.1.15,2013-11-09 08:51:00,
2013-11-09 03:56:00,34.1,29.5,30.26,WNW,299,0.0,0.0,83,0.00,,,0.00,0,Wunderground v.1.15,2013-11-09 08:56:00,
2013-11-09 04:01:00,33.9,29.6,30.25,WNW,298,0.0,0.0,84,0.00,,,0.00,0,Wunderground v.1.15,2013-11-09 09:01:00,
2013-11-09 04:06:00,33.7,29.7,30.25,WNW,298,0.0,1.0,85,0.00,,,0.00,0,Wunderground v.1.15,2013-11-09 09:06:00,
2013-11-09 04:11:00,33.5,29.5,30.24,WNW,298,0.0,0.0,85,0.00,,,0.00,0,Wunderground v.1.15,2013-11-09 09:11:00,
2013-11-09 04:16:00,33.4,29.4,30.24,WNW,298,0.0,0.0,85,0.00,,,0.00,0,Wunderground v.1.15,2013-11-09 09:16:00,
2013-11-09 04:21:00,33.3,29.6,30.24,WNW,298,0.0,0.0,86,0.00,,,0.00,0,Wunderground v.1.15,2013-11-09 09:21:00,
2013-11-09 04:26:00,33.2,29.2,30.24,WNW,298,0.0,0.0,85,0.00,,,0.00,0,Wunderground v.1.15,2013-11-09 09:26:00,
2013-11-09 04:31:00,33.0,29.3,30.24,WNW,298,0.0,1.0,86,0.00,,,0.00,0,Wunderground v.1.15,2013-11-09 09:31:00,
2013-11-09 04:36:00,32.7,29.0,30.24,WNW,297,0.0,1.0,86,0.00,,,0.00,0,Wunderground v.1.15,2013-11-09 09:36:00,
2013-11-09 04:41:00,32.6,28.6,30.24,WNW,299,0.0,1.0,85,0.00,,,0.00,0,Wunderground v.1.15,2013-11-09 09:41:00,
2013-11-09 04:46:00,32.4,28.7,30.24,WNW,301,0.0,1.0,86,0.00,,,0.00,0,Wunderground v.1.15,2013-11-09 09:46:00,
2013-11-09 04:51:00,32.2,28.5,30.24,WNW,301,0.0,0.0,86,0.00,,,0.00,0,Wunderground v.1.15,2013-11-09 09:51:00,
2013-11-09 04:56:00,32.1,28.7,30.24,WNW,301,0.0,1.0,87,0.00,,,0.00,0,Wunderground v.1.15,2013-11-09 09:56:00,
2013-11-09 05:02:00,32.0,28.6,30.24,WNW,301,1.0,1.0,87,0.00,,,0.00,0,Wunderground v.1.15,2013-11-09 10:02:00,
2013-11-09 05:07:00,31.8,28.1,30.24,WNW,302,0.0,1.0,86,0.00,,,0.00,0,Wunderground v.1.15,2013-11-09 10:07:00,
2013-11-09 05:12:00,31.7,28.3,30.24,WNW,302,0.0,1.0,87,0.00,,,0.00,0,Wunderground v.1.15,2013-11-09 10:12:00,
2013-11-09 05:17:00,31.6,28.2,30.24,WNW,302,0.0,1.0,87,0.00,,,0.00,0,Wunderground v.1.15,2013-11-09 10:17:00,
2013-11-09 05:22:00,31.6,28.5,30.24,WNW,302,0.0,1.0,88,0.00,,,0.00,0,Wunderground v.1.15,2013-11-09 10:22:00,
2013-11-09 05:28:00,31.5,28.4,30.24,WNW,302,1.0,1.0,88,0.00,,,0.00,0,Wunderground v.1.15,2013-11-09 10:28:00,
2013-11-09 05:33:00,31.4,28.0,30.24,WNW,302,0.0,1.0,87,0.00,,,0.00,0,Wunderground v.1.15,2013-11-09 10:33:00,
2013-11-09 05:38:00,31.2,28.1,30.24,WNW,302,0.0,1.0,88,0.00,,,0.00,0,Wunderground v.1.15,2013-11-09 10:38:00,
2013-11-09 05:43:00,31.1,28.0,30.24,WNW,302,0.0,0.0,88,0.00,,,0.00,0,Wunderground v.1.15,2013-11-09 10:43:00,
2013-11-09 05:48:00,31.1,28.0,30.24,WNW,302,0.0,0.0,88,0.00,,,0.00,0,Wunderground v.1.15,2013-11-09 10:48:00,
2013-11-09 05:53:00,31.0,27.9,30.24,WNW,302,0.0,1.0,88,0.00,,,0.00,0,Wunderground v.1.15,2013-11-09 10:53:00,
2013-11-09 05:58:00,31.0,28.1,30.24,WNW,302,0.0,1.0,89,0.00,,,0.00,0,Wunderground v.1.15,2013-11-09 10:58:00,
2013-11-09 06:03:00,30.9,27.8,30.24,WNW,302,0.0,0.0,88,0.00,,,0.00,0,Wunderground v.1.15,2013-11-09 11:03:00,
2013-11-09 06:08:00,30.9,28.0,30.23,WNW,302,0.0,1.0,89,0.00,,,0.00,0,Wunderground v.1.15,2013-11-09 11:08:00,
2013-11-09 06:13:00,30.8,27.9,30.23,WNW,302,0.0,1.0,89,0.00,,,0.00,0,Wunderground v.1.15,2013-11-09 11:13:00,
2013-11-09 06:18:00,30.7,27.6,30.23,WNW,302,0.0,1.0,88,0.00,,,0.00,0,Wunderground v.1.15,2013-11-09 11:18:00,
2013-11-09 06:23:00,30.6,27.7,30.24,WNW,302,0.0,0.0,89,0.00,,,0.00,0,Wunderground v.1.15,2013-11-09 11:23:00,
2013-11-09 06:28:00,30.7,27.8,30.23,WNW,302,0.0,0.0,89,0.00,,,0.00,0,Wunderground v.1.15,2013-11-09 11:28:00,
2013-11-09 06:33:00,30.6,27.7,30.23,WNW,302,0.0,1.0,89,0.00,,,0.00,0,Wunderground v.1.15,2013-11-09 11:33:00,
2013-11-09 06:38:00,30.5,27.6,30.23,WNW,302,0.0,1.0,89,0.00,,,0.00,0,Wunderground v.1.15,2013-11-09 11:38:00,
2013-11-09 06:43:00,30.5,27.6,30.24,WNW,302,0.0,1.0,89,0.00,,,0.00,0,Wunderground v.1.15,2013-11-09 11:43:00,
2013-11-09 06:48:00,30.3,27.4,30.24,WNW,302,0.0,1.0,89,0.00,,,0.00,0,Wunderground v.1.15,2013-11-09 11:48:00,
2013-11-09 06:53:00,30.3,27.4,30.24,WNW,302,0.0,1.0,89,0.00,,,0.00,0,Wunderground v.1.15,2013-11-09 11:53:00,
2013-11-09 06:58:00,30.3,27.4,30.24,WNW,302,0.0,1.0,89,0.00,,,0.00,0,Wunderground v.1.15,2013-11-09 11:58:00,
2013-11-09 07:03:00,30.3,27.4,30.24,WNW,302,0.0,0.0,89,0.00,,,0.00,0,Wunderground v.1.15,2013-11-09 12:03:00,
2013-11-09 07:08:00,30.2,27.3,30.24,WNW,302,1.0,1.0,89,0.00,,,0.00,0,Wunderground v.1.15,2013-11-09 12:08:00,
2013-11-09 07:13:00,30.2,27.3,30.23,WNW,302,0.0,1.0,89,0.00,,,0.00,0,Wunderground v.1.15,2013-11-09 12:13:00,
2013-11-09 07:19:00,30.2,27.3,30.23,WNW,302,0.0,0.0,89,0.00,,,0.00,0,Wunderground v.1.15,2013-11-09 12:19:00,
2013-11-09 07:24:00,30.1,27.3,30.23,WNW,302,0.0,0.0,89,0.00,,,0.00,0,Wunderground v.1.15,2013-11-09 12:24:00,
2013-11-09 07:29:00,30.2,27.6,30.24,WNW,302,0.0,0.0,90,0.00,,,0.00,0,Wunderground v.1.15,2013-11-09 12:29:00,
2013-11-09 07:35:00,30.3,27.4,30.23,WNW,302,0.0,0.0,89,0.00,,,0.00,0,Wunderground v.1.15,2013-11-09 12:35:00,
2013-11-09 07:40:00,30.5,27.9,30.23,WNW,302,1.0,1.0,90,0.00,,,0.00,0,Wunderground v.1.15,2013-11-09 12:40:00,
2013-11-09 07:45:00,30.7,27.8,30.23,WNW,302,0.0,1.0,89,0.00,,,0.00,0,Wunderground v.1.15,2013-11-09 12:45:00,
2013-11-09 07:51:00,30.9,28.3,30.23,WNW,302,0.0,1.0,90,0.00,,,0.00,0,Wunderground v.1.15,2013-11-09 12:51:00,
2013-11-09 07:56:00,31.1,28.2,30.23,WNW,302,0.0,1.0,89,0.00,,,0.00,0,Wunderground v.1.15,2013-11-09 12:56:00,
2013-11-09 08:01:00,31.4,28.5,30.23,WNW,302,0.0,1.0,89,0.00,,,0.00,0,Wunderground v.1.15,2013-11-09 13:01:00,
2013-11-09 08:06:00,31.7,28.6,30.23,WNW,302,0.0,1.0,88,0.00,,,0.00,0,Wunderground v.1.15,2013-11-09 13:06:00,
2013-11-09 08:11:00,32.1,29.2,30.23,WNW,302,0.0,1.0,89,0.00,,,0.00,0,Wunderground v.1.15,2013-11-09 13:11:00,
2013-11-09 08:16:00,32.5,29.3,30.23,WNW,302,0.0,1.0,88,0.00,,,0.00,0,Wunderground v.1.15,2013-11-09 13:16:00,
2013-11-09 08:21:00,33.0,30.1,30.23,WNW,300,1.0,2.0,89,0.00,,,0.00,0,Wunderground v.1.15,2013-11-09 13:21:00,
2013-11-09 08:26:00,33.5,30.0,30.23,WNW,298,1.0,2.0,87,0.00,,,0.00,0,Wunderground v.1.15,2013-11-09 13:26:00,
2013-11-09 08:31:00,34.0,30.5,30.23,WNW,298,1.0,2.0,87,0.00,,,0.00,0,Wunderground v.1.15,2013-11-09 13:31:00,
2013-11-09 08:36:00,34.6,31.1,30.23,WNW,298,0.0,2.0,87,0.00,,,0.00,0,Wunderground v.1.15,2013-11-09 13:36:00,
2013-11-09 08:41:00,35.2,31.4,30.23,WNW,297,0.0,1.0,86,0.00,,,0.00,0,Wunderground v.1.15,2013-11-09 13:41:00,
2013-11-09 08:46:00,36.2,32.1,30.23,WNW,296,0.0,1.0,85,0.00,,,0.00,0,Wunderground v.1.15,2013-11-09 13:46:00,
2013-11-09 08:51:00,38.1,33.4,30.23,WNW,291,0.0,1.0,83,0.00,,,0.00,0,Wunderground v.1.15,2013-11-09 13:51:00,
2013-11-09 08:56:00,39.3,33.3,30.23,West,267,2.0,2.0,79,0.00,,,0.00,0,Wunderground v.1.15,2013-11-09 13:56:00,
2013-11-09 09:01:00,40.8,32.8,30.23,West,259,0.0,1.0,73,0.00,,,0.00,0,Wunderground v.1.15,2013-11-09 14:01:00,
2013-11-09 09:06:00,42.1,33.7,30.23,West,259,2.0,2.0,72,0.00,,,0.00,0,Wunderground v.1.15,2013-11-09 14:06:00,
2013-11-09 09:11:00,42.7,33.2,30.23,WSW,258,2.0,4.0,69,0.00,,,0.00,0,Wunderground v.1.15,2013-11-09 14:11:00,
2013-11-09 09:17:00,43.3,32.7,30.23,WSW,257,3.0,4.0,66,0.00,,,0.00,0,Wunderground v.1.15,2013-11-09 14:17:00,
2013-11-09 09:22:00,44.2,33.2,30.23,WSW,256,2.0,2.0,65,0.00,,,0.00,0,Wunderground v.1.15,2013-11-09 14:22:00,
2013-11-09 09:27:00,45.5,32.4,30.22,WSW,257,2.0,3.0,60,0.00,,,0.00,0,Wunderground v.1.15,2013-11-09 14:27:00,
2013-11-09 09:32:00,46.8,34.5,30.23,WSW,258,1.0,2.0,62,0.00,,,0.00,0,Wunderground v.1.15,2013-11-09 14:32:00,
2013-11-09 09:37:00,47.8,33.7,30.22,WSW,240,2.0,3.0,58,0.00,,,0.00,0,Wunderground v.1.15,2013-11-09 14:37:00,
2013-11-09 09:42:00,48.8,34.2,30.22,SSW,210,1.0,6.0,57,0.00,,,0.00,0,Wunderground v.1.15,2013-11-09 14:42:00,
2013-11-09 09:47:00,49.3,34.3,30.22,SSE,158,1.0,6.0,56,0.00,,,0.00,0,Wunderground v.1.15,2013-11-09 14:47:00,
2013-11-09 09:52:00,50.5,35.8,30.22,SSE,165,2.0,3.0,57,0.00,,,0.00,0,Wunderground v.1.15,2013-11-09 14:52:00,
2013-11-09 09:57:00,50.9,34.4,30.21,NW,325,2.0,6.0,53,0.00,,,0.00,0,Wunderground v.1.15,2013-11-09 14:57:00,
2013-11-09 10:02:00,51.4,34.8,30.21,South,179,1.0,4.0,53,0.00,,,0.00,0,Wunderground v.1.15,2013-11-09 15:02:00,
2013-11-09 10:07:00,52.2,35.6,30.21,West,280,1.0,4.0,53,0.00,,,0.00,0,Wunderground v.1.15,2013-11-09 15:07:00,
2013-11-09 10:12:00,52.5,34.4,30.21,South,175,3.0,5.0,50,0.00,,,0.00,0,Wunderground v.1.15,2013-11-09 15:12:00,
2013-11-09 10:18:00,52.9,34.2,30.20,South,188,2.0,6.0,49,0.00,,,0.00,0,Wunderground v.1.15,2013-11-09 15:18:00,
2013-11-09 10:23:00,53.3,33.6,30.20,South,175,1.0,4.0,47,0.00,,,0.00,0,Wunderground v.1.15,2013-11-09 15:23:00,
2013-11-09 10:28:00,53.5,33.7,30.20,SSE,154,2.0,7.0,47,0.00,,,0.00,0,Wunderground v.1.15,2013-11-09 15:28:00,
2013-11-09 10:33:00,53.8,32.9,30.20,SSE,160,1.0,5.0,45,0.00,,,0.00,0,Wunderground v.1.15,2013-11-09 15:33:00,
2013-11-09 10:38:00,54.4,34.6,30.20,SSW,198,1.0,5.0,47,0.00,,,0.00,0,Wunderground v.1.15,2013-11-09 15:38:00,
2013-11-09 10:43:00,55.0,34.6,30.20,WSW,239,3.0,4.0,46,0.00,,,0.00,0,Wunderground v.1.15,2013-11-09 15:43:00,
2013-11-09 10:48:00,55.1,34.1,30.19,South,174,0.0,8.0,45,0.00,,,0.00,0,Wunderground v.1.15,2013-11-09 15:48:00,
2013-11-09 10:53:00,55.8,33.6,30.19,SSE,168,1.0,6.0,43,0.00,,,0.00,0,Wunderground v.1.15,2013-11-09 15:53:00,
2013-11-09 10:58:00,55.9,32.5,30.18,SSE,167,1.0,7.0,41,0.00,,,0.00,0,Wunderground v.1.15,2013-11-09 15:58:00,
2013-11-09 11:03:00,56.0,32.6,30.18,SSE,167,3.0,6.0,41,0.00,,,0.00,0,Wunderground v.1.15,2013-11-09 16:03:00,
2013-11-09 11:08:00,56.1,32.1,30.18,SW,235,8.0,8.0,40,0.00,,,0.00,0,Wunderground v.1.15,2013-11-09 16:08:00,
2013-11-09 11:13:00,56.2,32.8,30.18,South,187,3.0,7.0,41,0.00,,,0.00,0,Wunderground v.1.15,2013-11-09 16:13:00,
2013-11-09 11:18:00,56.4,32.4,30.17,West,276,2.0,7.0,40,0.00,,,0.00,0,Wunderground v.1.15,2013-11-09 16:18:00,
2013-11-09 11:23:00,56.6,32.5,30.17,SSE,168,3.0,11.0,40,0.00,,,0.00,0,Wunderground v.1.15,2013-11-09 16:23:00,
2013-11-09 11:28:00,56.7,32.6,30.17,SSE,161,3.0,11.0,40,0.00,,,0.00,0,Wunderground v.1.15,2013-11-09 16:28:00,
2013-11-09 11:33:00,57.1,33.6,30.16,East,87,0.0,5.0,41,0.00,,,0.00,0,Wunderground v.1.15,2013-11-09 16:33:00,
2013-11-09 11:38:00,57.3,32.5,30.16,SSE,164,3.0,8.0,39,0.00,,,0.00,0,Wunderground v.1.15,2013-11-09 16:38:00,
2013-11-09 11:43:00,57.4,31.3,30.16,South,176,7.0,12.0,37,0.00,,,0.00,0,Wunderground v.1.15,2013-11-09 16:43:00,
2013-11-09 11:48:00,57.4,32.6,30.16,SSE,158,2.0,12.0,39,0.00,,,0.00,0,Wunderground v.1.15,2013-11-09 16:48:00,
2013-11-09 11:53:00,57.6,32.2,30.16,SSW,197,1.0,7.0,38,0.00,,,0.00,0,Wunderground v.1.15,2013-11-09 16:53:00,
2013-11-09 11:58:00,58.1,31.9,30.15,South,174,3.0,7.0,37,0.00,,,0.00,0,Wunderground v.1.15,2013-11-09 16:58:00,
2013-11-09 12:03:00,58.2,31.3,30.15,SW,232,4.0,8.0,36,0.00,,,0.00,0,Wunderground v.1.15,2013-11-09 17:03:00,
2013-11-09 12:09:00,58.4,32.9,30.14,SSE,149,4.0,4.0,38,0.00,,,0.00,0,Wunderground v.1.15,2013-11-09 17:09:00,
2013-11-09 12:14:00,58.7,31.1,30.14,SSE,159,2.0,6.0,35,0.00,,,0.00,0,Wunderground v.1.15,2013-11-09 17:14:00,
2013-11-09 12:19:00,58.8,30.5,30.14,WNW,299,6.0,8.0,34,0.00,,,0.00,0,Wunderground v.1.15,2013-11-09 17:19:00,
2013-11-09 12:24:00,59.2,31.5,30.14,WNW,290,2.0,8.0,35,0.00,,,0.00,0,Wunderground v.1.15,2013-11-09 17:24:00,
2013-11-09 12:29:00,59.4,31.0,30.13,SE,134,3.0,3.0,34,0.00,,,0.00,0,Wunderground v.1.15,2013-11-09 17:29:00,
2013-11-09 12:34:00,59.7,30.5,30.13,SSE,156,3.0,10.0,33,0.00,,,0.00,0,Wunderground v.1.15,2013-11-09 17:34:00,
2013-11-09 12:39:00,59.9,30.7,30.13,SSE,156,3.0,3.0,33,0.00,,,0.00,0,Wunderground v.1.15,2013-11-09 17:39:00,
2013-11-09 12:44:00,60.3,31.0,30.12,SSE,162,4.0,8.0,33,0.00,,,0.00,0,Wunderground v.1.15,2013-11-09 17:44:00,
2013-11-09 12:49:00,60.6,30.6,30.12,West,261,9.0,9.0,32,0.00,,,0.00,0,Wunderground v.1.15,2013-11-09 17:49:00,
2013-11-09 12:54:00,61.0,26.7,30.12,WSW,246,4.0,9.0,27,0.00,,,0.00,0,Wunderground v.1.15,2013-11-09 17:54:00,
2013-11-09 12:59:00,61.4,27.1,30.11,WNW,283,10.0,10.0,27,0.00,,,0.00,0,Wunderground v.1.15,2013-11-09 17:59:00,
2013-11-09 13:04:00,61.4,27.1,30.11,South,187,3.0,10.0,27,0.00,,,0.00,0,Wunderground v.1.15,2013-11-09 18:04:00,
2013-11-09 13:09:00,61.7,27.3,30.10,NW,307,1.0,2.0,27,0.00,,,0.00,0,Wunderground v.1.15,2013-11-09 18:09:00,
2013-11-09 13:14:00,61.9,27.5,30.10,WSW,251,1.0,14.0,27,0.00,,,0.00,0,Wunderground v.1.15,2013-11-09 18:14:00,
2013-11-09 13:19:00,62.0,26.7,30.10,ENE,62,4.0,4.0,26,0.00,,,0.00,0,Wunderground v.1.15,2013-11-09 18:19:00,
2013-11-09 13:24:00,62.1,27.7,30.10,SSE,162,6.0,7.0,27,0.00,,,0.00,0,Wunderground v.1.15,2013-11-09 18:24:00,
2013-11-09 13:29:00,62.3,26.9,30.10,West,280,3.0,3.0,26,0.00,,,0.00,0,Wunderground v.1.15,2013-11-09 18:29:00,
2013-11-09 13:34:00,62.4,24.1,30.09,WNW,282,5.0,12.0,23,0.00,,,0.00,0,Wunderground v.1.15,2013-11-09 18:34:00,
2013-11-09 13:39:00,62.4,27.9,30.09,WSW,256,2.0,2.0,27,0.00,,,0.00,0,Wunderground v.1.15,2013-11-09 18:39:00,
2013-11-09 13:44:00,62.7,28.2,30.09,SSE,147,6.0,7.0,27,0.00,,,0.00,0,Wunderground v.1.15,2013-11-09 18:44:00,
2013-11-09 13:49:00,62.7,25.3,30.09,SSE,164,4.0,5.0,24,0.00,,,0.00,0,Wunderground v.1.15,2013-11-09 18:49:00,
2013-11-09 13:54:00,62.6,26.2,30.09,SSE,154,7.0,10.0,25,0.00,,,0.00,0,Wunderground v.1.15,2013-11-09 18:54:00,
2013-11-09 13:59:00,62.7,27.3,30.09,WSW,249,6.0,6.0,26,0.00,,,0.00,0,Wunderground v.1.15,2013-11-09 18:59:00,
2013-11-09 14:05:00,62.9,27.5,30.09,SSE,165,4.0,8.0,26,0.00,,,0.00,0,Wunderground v.1.15,2013-11-09 19:05:00,
2013-11-09 14:10:00,62.8,26.4,30.09,SSE,152,3.0,7.0,25,0.00,,,0.00,0,Wunderground v.1.15,2013-11-09 19:10:00,
2013-11-09 14:15:00,62.6,28.1,30.08,SE,125,3.0,8.0,27,0.00,,,0.00,0,Wunderground v.1.15,2013-11-09 19:15:00,
2013-11-09 14:20:00,62.5,26.2,30.08,SSE,157,3.0,6.0,25,0.00,,,0.00,0,Wunderground v.1.15,2013-11-09 19:20:00,
2013-11-09 14:25:00,62.4,27.9,30.08,SSE,163,7.0,11.0,27,0.00,,,0.00,0,Wunderground v.1.15,2013-11-09 19:25:00,
2013-11-09 14:31:00,62.4,27.0,30.08,SW,222,4.0,6.0,26,0.00,,,0.00,0,Wunderground v.1.15,2013-11-09 19:31:00,
2013-11-09 14:36:00,62.5,28.0,30.09,SSE,163,3.0,12.0,27,0.00,,,0.00,0,Wunderground v.1.15,2013-11-09 19:36:00,
2013-11-09 14:41:00,62.5,26.2,30.08,ESE,114,3.0,8.0,25,0.00,,,0.00,0,Wunderground v.1.15,2013-11-09 19:41:00,
2013-11-09 14:46:00,62.6,27.2,30.08,SSE,155,3.0,11.0,26,0.00,,,0.00,0,Wunderground v.1.15,2013-11-09 19:46:00,
2013-11-09 14:51:00,62.7,27.3,30.09,West,281,2.0,5.0,26,0.00,,,0.00,0,Wunderground v.1.15,2013-11-09 19:51:00,
2013-11-09 14:56:00,62.8,28.3,30.08,South,171,3.0,10.0,27,0.00,,,0.00,0,Wunderground v.1.15,2013-11-09 19:56:00,
2013-11-09 15:01:00,63.0,28.5,30.08,WNW,282,3.0,16.0,27,0.00,,,0.00,0,Wunderground v.1.15,2013-11-09 20:01:00,
2013-11-09 15:06:00,63.1,28.5,30.08,SE,138,5.0,16.0,27,0.00,,,0.00,0,Wunderground v.1.15,2013-11-09 20:06:00,
2013-11-09 15:12:00,63.2,27.7,30.08,ESE,104,4.0,10.0,26,0.00,,,0.00,0,Wunderground v.1.15,2013-11-09 20:12:00,
2013-11-09 15:17:00,63.2,28.6,30.08,South,176,2.0,10.0,27,0.00,,,0.00,0,Wunderground v.1.15,2013-11-09 20:17:00,
2013-11-09 15:22:00,63.1,28.5,30.08,WSW,240,3.0,11.0,27,0.00,,,0.00,0,Wunderground v.1.15,2013-11-09 20:22:00,
2013-11-09 15:27:00,63.0,28.5,30.08,SSE,153,0.0,11.0,27,0.00,,,0.00,0,Wunderground v.1.15,2013-11-09 20:27:00,
2013-11-09 15:32:00,63.0,28.5,30.08,West,274,7.0,7.0,27,0.00,,,0.00,0,Wunderground v.1.15,2013-11-09 20:32:00,
2013-11-09 15:38:00,63.0,28.5,30.08,SSE,158,4.0,7.0,27,0.00,,,0.00,0,Wunderground v.1.15,2013-11-09 20:38:00,
2013-11-09 15:43:00,63.0,27.5,30.08,ESE,117,2.0,6.0,26,0.00,,,0.00,0,Wunderground v.1.15,2013-11-09 20:43:00,
2013-11-09 15:48:00,62.9,27.5,30.08,SSE,158,2.0,8.0,26,0.00,,,0.00,0,Wunderground v.1.15,2013-11-09 20:48:00,
2013-11-09 15:53:00,62.8,27.4,30.08,SSE,163,3.0,9.0,26,0.00,,,0.00,0,Wunderground v.1.15,2013-11-09 20:53:00,
2013-11-09 15:58:00,62.7,28.2,30.07,SSW,206,3.0,9.0,27,0.00,,,0.00,0,Wunderground v.1.15,2013-11-09 20:58:00,
2013-11-09 16:03:00,62.5,27.1,30.07,South,176,2.0,5.0,26,0.00,,,0.00,0,Wunderground v.1.15,2013-11-09 21:03:00,
2013-11-09 16:08:00,62.4,27.9,30.08,SSE,164,4.0,7.0,27,0.00,,,0.00,0,Wunderground v.1.15,2013-11-09 21:08:00,
2013-11-09 16:13:00,62.4,26.1,30.07,South,178,3.0,5.0,25,0.00,,,0.00,0,Wunderground v.1.15,2013-11-09 21:13:00,
2013-11-09 16:18:00,62.2,27.8,30.07,SSE,149,1.0,7.0,27,0.00,,,0.00,0,Wunderground v.1.15,2013-11-09 21:18:00,
2013-11-09 16:23:00,62.1,26.8,30.07,ESE,106,5.0,8.0,26,0.00,,,0.00,0,Wunderground v.1.15,2013-11-09 21:23:00,
2013-11-09 16:28:00,61.9,26.6,30.07,SE,136,3.0,8.0,26,0.00,,,0.00,0,Wunderground v.1.15,2013-11-09 21:28:00,
2013-11-09 16:33:00,61.7,27.3,30.07,SSW,196,3.0,7.0,27,0.00,,,0.00,0,Wunderground v.1.15,2013-11-09 21:33:00,
2013-11-09 16:38:00,61.5,27.2,30.07,SSE,166,3.0,8.0,27,0.00,,,0.00,0,Wunderground v.1.15,2013-11-09 21:38:00,
2013-11-09 16:43:00,61.3,27.0,30.07,South,175,5.0,7.0,27,0.00,,,0.00,0,Wunderground v.1.15,2013-11-09 21:43:00,
2013-11-09 16:48:00,60.9,26.7,30.07,SSE,164,5.0,7.0,27,0.00,,,0.00,0,Wunderground v.1.15,2013-11-09 21:48:00,
2013-11-09 16:53:00,60.7,26.5,30.07,SSW,209,3.0,5.0,27,0.00,,,0.00,0,Wunderground v.1.15,2013-11-09 21:53:00,
2013-11-09 16:58:00,60.5,26.3,30.07,SSE,164,2.0,3.0,27,0.00,,,0.00,0,Wunderground v.1.15,2013-11-09 21:58:00,
2013-11-09 17:03:00,60.3,26.1,30.08,SSE,158,2.0,11.0,27,0.00,,,0.00,0,Wunderground v.1.15,2013-11-09 22:03:00,
2013-11-09 17:08:00,59.9,25.8,30.08,SSE,163,4.0,5.0,27,0.00,,,0.00,0,Wunderground v.1.15,2013-11-09 22:08:00,
2013-11-09 17:13:00,59.6,25.5,30.07,SSE,162,3.0,11.0,27,0.00,,,0.00,0,Wunderground v.1.15,2013-11-09 22:13:00,
2013-11-09 17:18:00,59.2,26.1,30.07,SSE,154,3.0,4.0,28,0.00,,,0.00,0,Wunderground v.1.15,2013-11-09 22:18:00,
2013-11-09 17:23:00,58.8,25.7,30.07,SSE,158,3.0,8.0,28,0.00,,,0.00,0,Wunderground v.1.15,2013-11-09 22:23:00,
2013-11-09 17:28:00,58.4,25.4,30.08,SSE,159,4.0,5.0,28,0.00,,,0.00,0,Wunderground v.1.15,2013-11-09 22:28:00,
2013-11-09 17:33:00,58.2,25.2,30.07,ESE,119,1.0,5.0,28,0.00,,,0.00,0,Wunderground v.1.15,2013-11-09 22:33:00,
2013-11-09 17:38:00,57.9,25.8,30.08,SE,136,3.0,3.0,29,0.00,,,0.00,0,Wunderground v.1.15,2013-11-09 22:38:00,
2013-11-09 17:43:00,57.8,25.7,30.08,SSE,163,2.0,8.0,29,0.00,,,0.00,0,Wunderground v.1.15,2013-11-09 22:43:00,
2013-11-09 17:49:00,57.5,24.6,30.08,NNW,339,1.0,1.0,28,0.00,,,0.00,0,Wunderground v.1.15,2013-11-09 22:49:00,
2013-11-09 17:54:00,57.3,26.1,30.08,ESE,122,1.0,5.0,30,0.00,,,0.00,0,Wunderground v.1.15,2013-11-09 22:54:00,
2013-11-09 17:59:00,56.9,25.7,30.08,South,190,2.0,4.0,30,0.00,,,0.00,0,Wunderground v.1.15,2013-11-09 22:59:00,
2013-11-09 18:05:00,56.6,25.5,30.08,South,190,2.0,4.0,30,0.00,,,0.00,0,Wunderground v.1.15,2013-11-09 23:05:00,
2013-11-09 18:10:00,56.3,25.2,30.08,South,190,2.0,2.0,30,0.00,,,0.00,0,Wunderground v.1.15,2013-11-09 23:10:00,
2013-11-09 18:15:00,55.9,25.7,30.08,South,190,0.0,3.0,31,0.00,,,0.00,0,Wunderground v.1.15,2013-11-09 23:15:00,
2013-11-09 18:20:00,55.7,25.5,30.08,South,190,0.0,2.0,31,0.00,,,0.00,0,Wunderground v.1.15,2013-11-09 23:20:00,
2013-11-09 18:25:00,55.5,25.3,30.08,South,190,1.0,3.0,31,0.00,,,0.00,0,Wunderground v.1.15,2013-11-09 23:25:00,
2013-11-09 18:31:00,55.4,26.0,30.08,South,181,1.0,4.0,32,0.00,,,0.00,0,Wunderground v.1.15,2013-11-09 23:31:00,
2013-11-09 18:36:00,55.3,25.9,30.08,South,177,1.0,4.0,32,0.00,,,0.00,0,Wunderground v.1.15,2013-11-09 23:36:00,
2013-11-09 18:41:00,55.3,25.9,30.08,SSE,164,2.0,4.0,32,0.00,,,0.00,0,Wunderground v.1.15,2013-11-09 23:41:00,
2013-11-09 18:46:00,55.2,25.8,30.08,SSE,154,1.0,5.0,32,0.00,,,0.00,0,Wunderground v.1.15,2013-11-09 23:46:00,
2013-11-09 18:51:00,55.0,25.6,30.08,SSE,154,1.0,3.0,32,0.00,,,0.00,0,Wunderground v.1.15,2013-11-09 23:51:00,
2013-11-09 18:56:00,54.9,26.3,30.07,SSE,154,2.0,3.0,33,0.00,,,0.00,0,Wunderground v.1.15,2013-11-09 23:56:00,
2013-11-09 19:01:00,55.0,26.4,30.08,SSE,149,4.0,5.0,33,0.00,,,0.00,0,Wunderground v.1.15,2013-11-10 00:01:00,
2013-11-09 19:06:00,55.2,26.6,30.07,NNW,348,1.0,5.0,33,0.00,,,0.00,0,Wunderground v.1.15,2013-11-10 00:06:00,
2013-11-09 19:11:00,55.0,26.4,30.07,SSE,160,1.0,4.0,33,0.00,,,0.00,0,Wunderground v.1.15,2013-11-10 00:11:00,
2013-11-09 19:16:00,54.9,26.3,30.07,South,183,3.0,5.0,33,0.00,,,0.00,0,Wunderground v.1.15,2013-11-10 00:16:00,
2013-11-09 19:21:00,54.9,26.3,30.08,SSE,165,1.0,2.0,33,0.00,,,0.00,0,Wunderground v.1.15,2013-11-10 00:21:00,
2013-11-09 19:26:00,54.8,26.2,30.07,SE,145,1.0,4.0,33,0.00,,,0.00,0,Wunderground v.1.15,2013-11-10 00:26:00,
2013-11-09 19:31:00,54.7,26.1,30.07,SSW,195,2.0,4.0,33,0.00,,,0.00,0,Wunderground v.1.15,2013-11-10 00:31:00,
2013-11-09 19:36:00,54.6,26.0,30.08,SE,132,1.0,4.0,33,0.00,,,0.00,0,Wunderground v.1.15,2013-11-10 00:36:00,
2013-11-09 19:41:00,54.4,26.6,30.08,SE,136,0.0,4.0,34,0.00,,,0.00,0,Wunderground v.1.15,2013-11-10 00:41:00,
2013-11-09 19:46:00,54.2,26.4,30.08,South,181,1.0,4.0,34,0.00,,,0.00,0,Wunderground v.1.15,2013-11-10 00:46:00,
2013-11-09 19:51:00,54.2,26.4,30.08,SE,141,0.0,3.0,34,0.00,,,0.00,0,Wunderground v.1.15,2013-11-10 00:51:00,
2013-11-09 19:56:00,54.1,27.0,30.09,SSE,148,1.0,3.0,35,0.00,,,0.00,0,Wunderground v.1.15,2013-11-10 00:56:00,
2013-11-09 20:01:00,53.9,26.8,30.09,SSE,147,3.0,3.0,35,0.00,,,0.00,0,Wunderground v.1.15,2013-11-10 01:01:00,
2013-11-09 20:06:00,53.8,26.8,30.09,SSE,147,1.0,3.0,35,0.00,,,0.00,0,Wunderground v.1.15,2013-11-10 01:06:00,
2013-11-09 20:11:00,53.5,27.2,30.09,SSE,147,1.0,4.0,36,0.00,,,0.00,0,Wunderground v.1.15,2013-11-10 01:11:00,
2013-11-09 20:16:00,53.5,27.2,30.09,SSW,200,1.0,4.0,36,0.00,,,0.00,0,Wunderground v.1.15,2013-11-10 01:16:00,
2013-11-09 20:21:00,53.5,27.2,30.09,South,172,1.0,2.0,36,0.00,,,0.00,0,Wunderground v.1.15,2013-11-10 01:21:00,
2013-11-09 20:26:00,53.4,27.8,30.10,WSW,239,2.0,3.0,37,0.00,,,0.00,0,Wunderground v.1.15,2013-11-10 01:26:00,
2013-11-09 20:31:00,53.2,27.6,30.10,WSW,241,2.0,2.0,37,0.00,,,0.00,0,Wunderground v.1.15,2013-11-10 01:31:00,
2013-11-09 20:36:00,53.2,26.9,30.10,SW,229,1.0,3.0,36,0.00,,,0.00,0,Wunderground v.1.15,2013-11-10 01:36:00,
2013-11-09 20:41:00,53.1,27.5,30.10,SW,227,2.0,2.0,37,0.00,,,0.00,0,Wunderground v.1.15,2013-11-10 01:41:00,
2013-11-09 20:47:00,53.0,27.4,30.11,SSE,163,2.0,3.0,37,0.00,,,0.00,0,Wunderground v.1.15,2013-11-10 01:47:00,
2013-11-09 20:52:00,53.0,27.4,30.11,SSE,165,2.0,3.0,37,0.00,,,0.00,0,Wunderground v.1.15,2013-11-10 01:52:00,
2013-11-09 20:57:00,53.0,28.0,30.11,South,169,2.0,3.0,38,0.00,,,0.00,0,Wunderground v.1.15,2013-11-10 01:57:00,
2013-11-09 21:03:00,53.0,28.0,30.11,SSE,163,2.0,4.0,38,0.00,,,0.00,0,Wunderground v.1.15,2013-11-10 02:03:00,
2013-11-09 21:08:00,52.8,27.9,30.11,SE,138,1.0,4.0,38,0.00,,,0.00,0,Wunderground v.1.15,2013-11-10 02:08:00,
2013-11-09 21:13:00,52.7,28.4,30.11,SSE,148,2.0,4.0,39,0.00,,,0.00,0,Wunderground v.1.15,2013-11-10 02:13:00,
2013-11-09 21:18:00,52.7,27.8,30.11,WNW,287,2.0,4.0,38,0.00,,,0.00,0,Wunderground v.1.15,2013-11-10 02:18:00,
2013-11-09 21:23:00,53.0,28.0,30.11,South,186,1.0,6.0,38,0.00,,,0.00,0,Wunderground v.1.15,2013-11-10 02:23:00,
2013-11-09 21:28:00,53.2,27.6,30.12,SE,139,5.0,6.0,37,0.00,,,0.00,0,Wunderground v.1.15,2013-11-10 02:28:00,
2013-11-09 21:33:00,53.8,28.1,30.11,SSE,165,4.0,5.0,37,0.00,,,0.00,0,Wunderground v.1.15,2013-11-10 02:33:00,
2013-11-09 21:38:00,54.0,28.3,30.11,South,183,5.0,5.0,37,0.00,,,0.00,0,Wunderground v.1.15,2013-11-10 02:38:00,
2013-11-09 21:43:00,54.3,29.2,30.12,SE,134,2.0,8.0,38,0.00,,,0.00,0,Wunderground v.1.15,2013-11-10 02:43:00,
2013-11-09 21:48:00,54.3,28.6,30.12,South,176,1.0,2.0,37,0.00,,,0.00,0,Wunderground v.1.15,2013-11-10 02:48:00,
2013-11-09 21:53:00,54.2,29.1,30.12,SE,136,1.0,6.0,38,0.00,,,0.00,0,Wunderground v.1.15,2013-11-10 02:53:00,
2013-11-09 21:58:00,54.1,29.0,30.12,SE,144,4.0,5.0,38,0.00,,,0.00,0,Wunderground v.1.15,2013-11-10 02:58:00,
2013-11-09 22:03:00,54.0,29.6,30.12,SSE,157,3.0,5.0,39,0.00,,,0.00,0,Wunderground v.1.15,2013-11-10 03:03:00,
2013-11-09 22:08:00,54.0,29.6,30.12,NNW,335,2.0,3.0,39,0.00,,,0.00,0,Wunderground v.1.15,2013-11-10 03:08:00,
2013-11-09 22:13:00,53.9,29.5,30.13,WSW,240,2.0,7.0,39,0.00,,,0.00,0,Wunderground v.1.15,2013-11-10 03:13:00,
2013-11-09 22:18:00,53.7,29.3,30.12,SSE,153,3.0,5.0,39,0.00,,,0.00,0,Wunderground v.1.15,2013-11-10 03:18:00,
2013-11-09 22:23:00,53.7,29.3,30.13,South,175,1.0,5.0,39,0.00,,,0.00,0,Wunderground v.1.15,2013-11-10 03:23:00,
2013-11-09 22:28:00,53.6,29.2,30.13,SSW,200,2.0,4.0,39,0.00,,,0.00,0,Wunderground v.1.15,2013-11-10 03:28:00,
2013-11-09 22:34:00,53.5,29.7,30.12,SSE,161,2.0,5.0,40,0.00,,,0.00,0,Wunderground v.1.15,2013-11-10 03:34:00,
2013-11-09 22:39:00,53.3,29.6,30.13,SSE,154,1.0,4.0,40,0.00,,,0.00,0,Wunderground v.1.15,2013-11-10 03:39:00,
2013-11-09 22:44:00,53.2,29.5,30.13,NW,312,2.0,4.0,40,0.00,,,0.00,0,Wunderground v.1.15,2013-11-10 03:44:00,
2013-11-09 22:50:00,53.1,30.0,30.13,South,178,2.0,4.0,41,0.00,,,0.00,0,Wunderground v.1.15,2013-11-10 03:50:00,
2013-11-09 22:55:00,52.8,29.7,30.13,South,181,2.0,4.0,41,0.00,,,0.00,0,Wunderground v.1.15,2013-11-10 03:55:00,
2013-11-09 23:00:00,52.7,30.2,30.13,East,84,2.0,3.0,42,0.00,,,0.00,0,Wunderground v.1.15,2013-11-10 04:00:00,
2013-11-09 23:05:00,52.5,30.0,30.13,SE,136,4.0,4.0,42,0.00,,,0.00,0,Wunderground v.1.15,2013-11-10 04:05:00,
2013-11-09 23:10:00,52.4,30.0,30.13,East,98,3.0,5.0,42,0.00,,,0.00,0,Wunderground v.1.15,2013-11-10 04:10:00,
2013-11-09 23:15:00,52.4,30.5,30.13,SSE,153,4.0,5.0,43,0.00,,,0.00,0,Wunderground v.1.15,2013-11-10 04:15:00,
2013-11-09 23:20:00,52.3,29.9,30.13,WSW,256,2.0,3.0,42,0.00,,,0.00,0,Wunderground v.1.15,2013-11-10 04:20:00,
2013-11-09 23:25:00,52.2,30.4,30.13,SSE,157,5.0,7.0,43,0.00,,,0.00,0,Wunderground v.1.15,2013-11-10 04:25:00,
2013-11-09 23:31:00,52.1,30.3,30.13,SE,145,4.0,5.0,43,0.00,,,0.00,0,Wunderground v.1.15,2013-11-10 04:31:00,
2013-11-09 23:36:00,52.1,30.3,30.13,SSE,162,1.0,6.0,43,0.00,,,0.00,0,Wunderground v.1.15,2013-11-10 04:36:00,
2013-11-09 23:41:00,52.0,30.7,30.13,South,170,4.0,5.0,44,0.00,,,0.00,0,Wunderground v.1.15,2013-11-10 04:41:00,
2013-11-09 23:46:00,52.1,30.8,30.13,SSW,200,2.0,5.0,44,0.00,,,0.00,0,Wunderground v.1.15,2013-11-10 04:46:00,
2013-11-09 23:51:00,52.0,30.7,30.12,South,170,2.0,6.0,44,0.00,,,0.00,0,Wunderground v.1.15,2013-11-10 04:51:00,
2013-11-09 23:56:00,51.9,31.2,30.12,SSE,165,2.0,6.0,45,0.00,,,0.00,0,Wunderground v.1.15,2013-11-10 04:56:00,